Tracking 30703 objects as of 13-Jun-2025
HD Live streaming from Space Station
objects crossing your sky now

STARLINK-31961

Track STARLINK-31961 now!
10-day predictions
STARLINK-31961 is classified as:


NORAD ID: 59894
Int'l Code: 2024-100K
Perigee: 489.2 km
Apogee: 491.3 km
Inclination: 43.0 °
Period: 94.3 minutes
Semi major axis: 6861 km
RCS: Unknown
Launch date: May 28, 2024
Source: United States (US)
Launch site: AIR FORCE EASTERN TEST RANGE (AFETR)
Your satellite tracking list
Your tracking list is empty




NASA's NSSDC Master Catalog

Two Line Element Set (TLE):
1 59894U 24100K   25163.91667824  .00014992  00000-0  55375-3 0  9995
2 59894  42.9983 201.9375 0001526 265.8974 304.5473 15.27547972 59968
Source of the keplerian elements: AFSPC